EW7349 Weather Reports


Display with metric or nautical units.
time (UTC)temp
F
wind
direction
speed
MPH
gust
MPH
rain 1hr
in
rain 24hr
in
rain mn
in
humidity
%
barometer
mb
20260504233645 73 217 1.0 4.0 0.00 0.00 0.00 40 1010.0
20260504233144 73 184 1.0 4.0 0.00 0.00 0.00 40 1010.1
20260504232645 73 207 1.0 4.0 0.00 0.00 0.00 40 1010.1
20260504232143 74 223 1.0 4.0 0.00 0.00 0.00 40 1009.9
20260504231645 74 263 1.0 5.0 0.00 0.00 0.00 40 1009.9
20260504230641 74 136 2.0 7.0 0.00 0.00 0.00 39 1009.7
20260504230143 74 248 2.0 8.0 0.00 0.00 0.00 39 1009.7
20260504225642 74 257 2.0 8.0 0.00 0.00 0.00 38 1009.7
20260504225633 74 217 1.0 8.0 0.00 0.00 0.00 38 1009.8
20260504224901 74 209 2.0 7.0 0.00 0.00 0.00 39 1009.8
20260504224142 74 315 2.0 12.0 0.00 0.00 0.00 38 1009.8
20260504223636 75 267 2.0 12.0 0.00 0.00 0.00 37 1009.8
20260504223130 75 179 2.0 11.0 0.00 0.00 0.00 37 1009.7
20260504222624 75 225 2.0 7.0 0.00 0.00 0.00 38 1009.7
20260504222118 75 317 2.0 6.0 0.00 0.00 0.00 38 1009.7
20260504221611 75 148 2.0 8.0 0.00 0.00 0.00 37 1009.8
20260504221104 75 234 3.0 11.0 0.00 0.00 0.00 37 1009.9
20260504220558 75 310 4.0 11.0 0.00 0.00 0.00 36 1009.9
20260504220052 76 228 3.0 11.0 0.00 0.00 0.00 37 1009.9
20260504215545 75 208 2.0 8.0 0.00 0.00 0.00 36 1010.0
20260504215301 75 236 2.0 10.0 0.00 0.00 0.00 36 1009.9
20260504214535 75 272 2.0 10.0 0.00 0.00 0.00 36 1009.8
20260504214245 75 308 2.0 9.0 0.00 0.00 0.00 36 1009.7
20260504213523 76 150 3.0 7.0 0.00 0.00 0.00 35 1009.7
20260504213016 76 219 2.0 11.0 0.00 0.00 0.00 36 1009.8
20260504212511 76 175 2.0 11.0 0.00 0.00 0.00 35 1009.8
20260504212004 76 140 2.0 10.0 0.00 0.00 0.00 35 1009.9
20260504211458 76 56 2.0 10.0 0.00 0.00 0.00 34 1009.8
20260504210952 76 133 2.0 6.0 0.00 0.00 0.00 34 1009.8
20260504210709 76 128 3.0 9.0 0.00 0.00 0.00 34 1009.9
20260504205941 76 219 3.0 9.0 0.00 0.00 0.00 34 1009.9
20260504205435 76 211 2.0 9.0 0.00 0.00 0.00 34 1009.8
20260504204928 76 217 2.0 9.0 0.00 0.00 0.00 33 1009.8
20260504204422 76 86 3.0 8.0 0.00 0.00 0.00 36 1009.9
20260504203916 75 188 3.0 8.0 0.00 0.00 0.00 33 1009.9
20260504203410 77 235 3.0 8.0 0.00 0.00 0.00 32 1010.0
20260504202904 77 281 2.0 6.0 0.00 0.00 0.00 32 1010.0
20260504202359 78 155 2.0 6.0 0.00 0.00 0.00 35 1010.0
20260504201851 79 321 2.0 9.0 0.00 0.00 0.00 32 1010.0
20260504201347 80 152 3.0 9.0 0.00 0.00 0.00 33 1009.9
20260504200841 80 230 3.0 9.0 0.00 0.00 0.00 30 1009.9
20260504200557 79 117 3.0 9.0 0.00 0.00 0.00 30 1009.8
20260504195828 80 171 3.0 9.0 0.00 0.00 0.00 31 1010.1
20260504195322 80 273 2.0 9.0 0.00 0.00 0.00 30 1010.0
20260504194816 80 146 2.0 9.0 0.00 0.00 0.00 29 1010.1
20260504194311 79 190 3.0 9.0 0.00 0.00 0.00 32 1010.2
20260504193804 78 288 3.0 9.0 0.00 0.00 0.00 31 1010.2
20260504193259 78 171 3.0 9.0 0.00 0.00 0.00 30 1010.3
20260504192752 78 169 3.0 11.0 0.00 0.00 0.00 29 1010.5
20260504192246 79 280 2.0 11.0 0.00 0.00 0.00 33 1010.4
20260504191741 79 345 2.0 6.0 0.00 0.00 0.00 29 1010.5
20260504191236 80 273 2.0 7.0 0.00 0.00 0.00 30 1010.6
20260504190951 79 273 2.0 10.0 0.00 0.00 0.00 29 1010.7
20260504190446 78 279 3.0 11.0 0.00 0.00 0.00 29 1010.8
20260504185934 79 19 3.0 11.0 0.00 0.00 0.00 29 1010.9
20260504185435 78 292 2.0 11.0 0.00 0.00 0.00 29 1011.0
20260504184704 78 175 3.0 11.0 0.00 0.00 0.00 29 1011.1
20260504184158 79 239 2.0 7.0 0.00 0.00 0.00 34 1011.1
20260504183652 77 295 3.0 13.0 0.00 0.00 0.00 31 1011.3
20260504183147 77 249 4.0 15.0 0.00 0.00 0.00 30 1011.4
20260504182640 77 289 4.0 9.0 0.00 0.00 0.00 29 1011.5
20260504182136 78 251 3.0 9.0 0.00 0.00 0.00 30 1011.7
20260504181629 78 145 3.0 8.0 0.00 0.00 0.00 30 1011.6
20260504181122 78 97 3.0 8.0 0.00 0.00 0.00 31 1011.7
20260504180616 78 252 3.0 7.0 0.00 0.00 0.00 30 1011.7
20260504180111 78 213 3.0 10.0 0.00 0.00 0.00 29 1011.7
20260504175606 76 318 3.0 11.0 0.00 0.00 0.00 32 1011.8
20260504175058 77 175 3.0 11.0 0.00 0.00 0.00 31 1011.8
20260504174552 77 129 3.0 9.0 0.00 0.00 0.00 30 1012.0
20260504174047 76 282 3.0 9.0 0.00 0.00 0.00 31 1012.1
20260504173540 77 242 3.0 8.0 0.00 0.00 0.00 34 1012.3
20260504173034 76 287 3.0 8.0 0.00 0.00 0.00 30 1012.3
20260504172529 74 277 3.0 8.0 0.00 0.00 0.00 32 1012.1
20260504172030 75 245 2.0 7.0 0.00 0.00 0.00 32 1012.3
20260504171753 75 37 3.0 8.0 0.00 0.00 0.00 33 1012.5
20260504171028 75 242 3.0 10.0 0.00 0.00 0.00 35 1012.4
20260504170529 76 336 2.0 11.0 0.00 0.00 0.00 32 1012.5
20260504151019 68 220 2.0 12.0 0.00 0.00 0.00 38 1014.0
20260504150520 67 259 2.0 6.0 0.00 0.00 0.00 40 1013.9
20260504141015 61 250 1.0 6.0 0.00 0.00 0.00 49 1014.2
20260504140512 60 26 2.0 6.0 0.00 0.00 0.00 51 1014.2
20260504130442 53 265 1.0 6.0 0.00 0.00 0.00 62 1014.7
20260504110353 49 242 0.0 2.0 0.00 0.00 0.00 67 1015.0
20260504100240 49 254 1.0 5.0 0.00 0.00 0.00 69 1014.8
20260504090129 49 238 0.0 1.0 0.00 0.00 0.00 68 1015.1
20260504081753 50 205 0.0 1.0 0.00 0.00 0.00 66 1015.3
20260504081250 50 239 0.0 0.0 0.00 0.00 0.00 66 1015.2
20260504080523 50 239 0.0 0.0 0.00 0.00 0.00 66 1015.2
20260504070411 50 147 0.0 1.0 0.00 0.00 0.00 63 1015.0
20260504070132 50 147 0.0 1.0 0.00 0.00 0.00 63 1015.0
20260504050341 49 117 0.0 0.0 0.00 0.00 0.00 69 1015.4
20260504045605 49 117 0.0 0.0 0.00 0.00 0.00 69 1015.4
20260504044836 48 117 0.0 0.0 0.00 0.00 0.00 69 1015.4
20260504044337 48 117 0.0 0.0 0.00 0.00 0.00 69 1015.4
20260504043835 48 117 0.0 0.0 0.00 0.00 0.00 69 1015.4
20260504043336 48 117 0.0 0.0 0.00 0.00 0.00 70 1015.3
20260504042835 48 117 0.0 0.0 0.00 0.00 0.00 69 1015.4
20260504042335 48 117 0.0 0.0 0.00 0.00 0.00 69 1015.3
20260504041833 48 117 0.0 0.0 0.00 0.00 0.00 69 1015.4
20260504041332 48 117 0.0 0.0 0.00 0.00 0.00 69 1015.2
20260504040834 48 117 0.0 0.0 0.00 0.00 0.00 68 1015.2
20260504040332 48 117 0.0 0.0 0.00 0.00 0.00 68 1015.3
20260504035832 48 117 0.0 0.0 0.00 0.00 0.00 67 1015.3
20260504035333 48 117 0.0 1.0 0.00 0.00 0.00 67 1015.3
20260504034831 48 117 0.0 1.0 0.00 0.00 0.00 67 1015.3
20260504034328 48 117 0.0 1.0 0.00 0.00 0.00 66 1015.5
20260504034054 48 117 0.0 0.0 0.00 0.00 0.00 66 1015.4
20260504033330 48 117 0.0 0.0 0.00 0.00 0.00 65 1015.4
20260504033043 48 117 0.0 0.0 0.00 0.00 0.00 65 1015.3
20260504032927 48 117 0.0 0.0 0.00 0.00 0.00 65 1015.4
20260504031829 48 117 0.0 0.0 0.00 0.00 0.00 65 1015.3
20260504031325 49 117 0.0 0.0 0.00 0.00 0.00 64 1015.4
20260504030824 49 117 0.0 0.0 0.00 0.00 0.00 63 1015.4
20260504030325 49 117 0.0 0.0 0.00 0.00 0.00 63 1015.3
20260504025824 49 117 0.0 0.0 0.00 0.00 0.00 63 1015.3
20260504025325 49 117 0.0 0.0 0.00 0.00 0.00 62 1015.3
20260504024825 49 117 0.0 0.0 0.00 0.00 0.00 61 1015.3
20260504024817 49 117 0.0 0.0 0.00 0.00 0.00 60 1015.3
20260504023824 49 117 0.0 0.0 0.00 0.00 0.00 60 1015.2
20260504023325 49 117 0.0 0.0 0.00 0.00 0.00 60 1015.3
20260504023049 50 117 0.0 0.0 0.00 0.00 0.00 60 1015.2
20260504022321 50 117 0.0 1.0 0.00 0.00 0.00 60 1015.2
20260504021821 50 117 0.0 1.0 0.00 0.00 0.00 60 1015.2
20260504021319 50 117 0.0 0.0 0.00 0.00 0.00 58 1015.2
20260504020821 50 117 0.0 0.0 0.00 0.00 0.00 58 1015.2
20260504020319 51 117 0.0 0.0 0.00 0.00 0.00 57 1015.2
20260504015820 51 117 0.0 0.0 0.00 0.00 0.00 56 1015.1
20260504015319 51 117 0.0 0.0 0.00 0.00 0.00 56 1015.0
20260504014821 51 117 0.0 0.0 0.00 0.00 0.00 56 1015.0
20260504014320 51 117 0.0 0.0 0.00 0.00 0.00 55 1015.1
20260504013818 52 117 0.0 0.0 0.00 0.00 0.00 55 1015.0
20260504013318 52 117 0.0 0.0 0.00 0.00 0.00 55 1015.0
20260504012819 52 117 0.0 0.0 0.00 0.00 0.00 54 1014.9
20260504012317 53 117 0.0 0.0 0.00 0.00 0.00 53 1014.8
20260504012047 53 117 0.0 0.0 0.00 0.00 0.00 53 1014.8
20260504011317 53 117 0.0 0.0 0.00 0.00 0.00 53 1014.7
20260504010815 54 117 0.0 0.0 0.00 0.00 0.00 52 1014.7
20260504010315 54 117 0.0 0.0 0.00 0.00 0.00 50 1014.6
20260504005809 54 117 0.0 0.0 0.00 0.00 0.00 49 1014.6
20260504005309 55 117 0.0 0.0 0.00 0.00 0.00 48 1014.5
20260504005038 55 117 0.0 0.0 0.00 0.00 0.00 48 1014.5
20260504004308 56 117 0.0 0.0 0.00 0.00 0.00 48 1014.5
20260504003807 56 117 0.0 0.0 0.00 0.00 0.00 47 1014.4
20260504003524 56 117 0.0 0.0 0.00 0.00 0.00 46 1014.4
20260504002801 57 117 0.0 0.0 0.00 0.00 0.00 46 1014.4
20260504002303 57 117 0.0 0.0 0.00 0.00 0.00 46 1014.4
20260504001755 58 117 0.0 0.0 0.00 0.00 0.00 45 1014.4
20260504001248 58 117 0.0 0.0 0.00 0.00 0.00 42 1014.5
20260504000742 59 117 0.0 0.0 0.00 0.00 0.00 41 1014.4
20260504000547 59 117 0.0 0.0 0.00 0.00 0.00 40 1014.4
20260504000457 60 117 0.0 0.0 0.00 0.00 0.00 40 1014.4
20260503235425 61 117 0.0 0.0 0.00 0.00 0.00 39 1014.2
20260503235312 60 117 0.0 0.0 0.00 0.00 0.00 40 1014.3
20260503234213 61 117 0.0 0.0 0.00 0.00 0.00 39 1014.1
20260503233926 61 117 0.0 1.0 0.00 0.00 0.00 38 1014.2